Location: Unspecified
(42.2600°N, 0.0000°E)
Time: 11:48:54
(UTC+00:00)

ISS - Pass Details

Date: 26 May 2019
Orbit: 408 x 418 km, 51.6° (Epoch: 18 June)

Event Time Altitude Azimuth Distance (km) Brightness Sun altitude
Rises 23:45:22 0° 303° (WNW) 2,363 0.5 -26.5°
Reaches altitude 10° 23:47:28 10° 303° (WNW) 1,498 -0.6 -26.5°
Enters shadow 23:47:53 13° 303° (WNW) 1,326 -0.9 -26.5°
